Regional Weather Roundup
Issued by NWS

Home | Current Version | Previous Version | Text Only | Print | Product List | Glossary On
Versions: 1 2 3 4 5 6 7 8 9 10 11 12 13 14 15 16 17 18 19 20 21 22 23 24 25 26 27 28 29 30 31 32 33 34 35 36 37 38 39 40 41 42 43 44 45 46 47 48 49 50
000
ASUS45 KTFX 252110
RWRMT
MONTANA REGIONAL WEATHER ROUNDUP
NATIONAL WEATHER SERVICE GREAT FALLS MT
200 PM MST SAT FEB 25 2017

NOTE: "FAIR" INDICATES FEW OR NO CLOUDS BELOW 12000 FEET WITH NO
SIGNIFICANT WEATHER AND/OR OBSTRUCTIONS TO VISIBILITY.

MTZ001>007-043-252200-
WEST OF THE DIVIDE

CITY           SKY/WX    TMP DP  RH WIND       PRES   REMARKS
KALISPELL      FLURRIES  28  20  71 SE12      29.89F WCI  18
MISSOULA       CLOUDY    31  15  52 W15       29.94S WCI  20
BUTTE          CLOUDY    23   6  48 W14G22    29.78F WCI  11
MULLAN PASS    LGT SNOW  14  12  92 VRB3      29.80F VSB 3/4
ANACONDA         N/A     25   9  50 W18G24    29.81F WCI  11
DEER LODGE       N/A     27   5  39 W8G22     29.83F WCI  18
EUREKA           N/A     30  12  47 E6        29.89S WCI  24
HAMILTON         N/A     30   7  37 W17G30      N/A  WCI  18
LIBBY            N/A     34  10  37 NW10G20   29.90F WCI  26
PLAINS           N/A     32  16  52 NW3       29.96F
RONAN            N/A     29  15  55 SW7       29.97F WCI  22
THOMPSON FALLS   N/A     32  17  54 W7        30.01F WCI  26
$$

MTZ008-052>055-252200-
SOUTHWEST MONTANA

CITY           SKY/WX    TMP DP  RH WIND       PRES   REMARKS
BOZEMAN        CLOUDY    28   7  41 W18G25    29.79F WCI  15
DILLON         PTSUNNY   28   5  37 W25G38    29.81F WCI  13
W YELLOWSTONE  LGT SNOW  16   7  67 SW14G20   29.79F WCI   1
ENNIS          PTSUNNY   27   3  36 SW16      29.85F WCI  14
$$

MTZ009-010-012-014-046-048-049-054-252200-
EAST SLOPES AND CENTRAL MONTANA

CITY           SKY/WX    TMP DP  RH WIND       PRES   REMARKS
CUT BANK       SUNNY     29  14  53 W29G35    29.66F WCI  14
GREAT FALLS    PTSUNNY   31   6  35 W20G28    29.70F WCI  19
MALMSTROM AFB  PTSUNNY   33   5  31 W16G24    29.72F WCI  22
HELENA         PTSUNNY   30  10  43 W16G29    29.79F WCI  19
AUGUSTA          N/A     29   5  35 W22G32    29.68F WCI  16
BOWMANS CRNR     N/A     29   2  32 W29G36    29.69F WCI  13
CHOTEAU          N/A     34   5  29 W17G25    29.70F WCI  23
CONRAD           N/A     31  14  49 W17       29.73F WCI  20
POWER          PTSUNNY   33   6  31 W18G24    29.68F WCI  22
RAYNESFORD     PTSUNNY   27  10  47 W25G36    29.70F WCI  12
ULM            PTSUNNY   33   5  31 MISG      29.73F
$$

MTZ011-013-016-021-045-047-050-051-252200-
NORTH CENTRAL MONTANA

CITY           SKY/WX    TMP DP  RH WIND       PRES   REMARKS
HAVRE          CLOUDY    32  18  56 W16       29.70F WCI  21
LEWISTOWN      PTSUNNY   26   8  46 W18G26    29.69F WCI  13
N BAR RANCH    FLURRIES  23   9  54 NW20      29.70S WCI   8
CHINOOK          N/A     30  16  55 W15       29.70F WCI  19
DENTON         PTSUNNY   30  13  49 W26G39    29.66F WCI  15
FORT BENTON      N/A     36   7  30 MISG      29.72F
GEYSER         PTSUNNY   28   7  40 W29G39    29.68F WCI  12
GRASS RANGE    PTSUNNY   28  10  47 W26G36    29.66F WCI  13
JUDITH GAP     PTSUNNY   23  15  69 W18       29.69F WCI   9
ROY            PTSUNNY   29  15  55 MISG      29.68F
STANFORD         N/A     28   7  42 W18       29.68F WCI  15
WINIFRED       FLURRIES  26  15  61 NW18G24   29.69F WCI  13
$$

MTZ017>020-022>027-061-062-252200-
NORTHEAST MONTANA

CITY           SKY/WX    TMP DP  RH WIND       PRES   REMARKS
GLASGOW        CLOUDY    29  19  66 NW14      29.70F WCI  18
JORDAN           N/A     34  13  41 W24G35    29.70F WCI  21
SIDNEY         MOSUNNY   32  22  66 W13       29.71F WCI  22
WOLF POINT     LGT SNOW  31  24  75 W13       29.71F WCI  21
PLENTYWOOD       N/A     18  12  79 N12       29.72F WCI   5
POPLAR           N/A     28  21  74 W17G24    29.71F WCI  16
SCOBEY           N/A     19   9  65 SW6       29.71  WCI  11
$$

MTZ028>42-056>058-252200-
SOUTHCENTRAL AND SOUTHEAST MONTANA

CITY           SKY/WX    TMP DP  RH WIND       PRES   REMARKS
BAKER          LGT SNOW  28  22  78 W12       29.72F WCI  18
BILLINGS       MOSUNNY   31  12  45 W24G35    29.75F WCI  17
LIVINGSTON     MOSUNNY   27   8  44 W30G41    29.74F WCI  11
MILES CITY     CLOUDY    33  14  45 W18G25    29.73F WCI  22
BIG TIMBER     SUNNY     25  12  58 W32       29.75F HAZE    WCI   7
EKALAKA          N/A     28  16  61 SW9       29.71  WCI  19
FORSYTH          N/A     34   9  35 SW18G25   29.73F WCI  23
HARLOWTON      PTSUNNY   26  15  63 W30G37    29.71F WCI   9
LAUREL           N/A     30   7  38 W28       29.75F WCI  15
$$

REGIONAL REPORTS...DAKOTAS

CITY           SKY/WX    TMP DP  RH WIND       PRES   REMARKS
WILLISTON      LGT SNOW  27  22  81 SW9       29.71F WCI  18
MINOT          FLURRIES  23  15  71 NW7       29.76F WCI  15
DICKINSON      PTSUNNY   28  19  69 W13       29.71F WCI  17
BEACH            N/A    N/A N/A N/A MISG        N/A
CROSBY         LGT SNOW  16  14  93 N8        29.77F WCI   5
TIOGA          LGT SNOW  23  23 100 SW10      29.72F WCI  12
WATFORD CITY   PTSUNNY   27  21  80 SW14      29.72F WCI  15
BISMARCK       CLOUDY    29  20  69 VRB6      29.79F WCI  23
GRAND FORKS    PTSUNNY   30  16  56 NW15      29.78S WCI  19
FARGO          CLOUDY    31  24  75 W13       29.80F WCI  21
BUFFALO SD       N/A     32  15  49 W13       29.68F WCI  22
RAPID CITY     LGT SNOW  29  21  72 S3        29.79F
$$

REGIONAL REPORTS...WYOMING/IDAHO/WASHINGTON

CITY           SKY/WX    TMP DP  RH WIND       PRES   REMARKS
GILLETTE       MOSUNNY   29  14  53 SW10      29.72F WCI  20
SHERIDAN       MOSUNNY   30  16  56 S10       29.74F WCI  21
BUFFALO WY     PTSUNNY   25  14  63 SE3       29.71F
CODY           SUNNY     29   5  36 W18G32    29.73F WCI  16
YELLOWSTONE LA   N/A     12  -1  56 W15G26    29.73F WCI  -4
IDAHO FALLS    MOSUNNY   19  12  74 SW18      29.98F WCI   4
SALMON         CLOUDY    32  10  40 SW15      29.91F WCI  22
BOISE          SUNNY     36  16  44 CALM      30.11F
SPOKANE        PTSUNNY   31  24  75 SW16      30.02F WCI  20
$$

REGIONAL REPORTS...ALBERTA

CITY           SKY/WX    TMP DP  RH WIND       PRES   REMARKS
EDMONTON       LGT SNOW  21  16  79 NW6       29.61F WCI  14
CALGARY        PTSUNNY   25  10  54 S6        29.57F WCI  18
LETHBRIDGE     MOSUNNY   36  10  35 W25G33    29.63F WCI  23
MEDICINE HAT   CLOUDY    25  18  74 W9        29.69F WCI  15
WATERTON GATE    N/A     25   9  50 SW29G40     N/A  WCI   8
CARDSTON         N/A     30  12  47 W18G31      N/A  WCI  18
MILK RIVER       N/A     32  10  40 W23G29      N/A  WCI  19
ONEFOUR          N/A     23  14  68 NW9         N/A  WCI  13
$$

REGIONAL REPORTS...SASKATCHEWAN

CITY           SKY/WX    TMP DP  RH WIND       PRES   REMARKS
SWIFT CURRENT  CLOUDY    16   7  67 SW5       29.68F
REGINA         FLURRIES  16   9  73 NW12      29.75F WCI   3
SASKATOON      MOSUNNY   16   3  57 W7        29.77F WCI   6
CYPRESS HILLS    N/A     19  10  68 W6          N/A  WCI  11
VAL MARIE        N/A     21  16  79 N5          N/A
ROCKGLEN         N/A     14  10  85 N6          N/A  WCI   5
$$



USA.gov is the U.S. government's official web portal to all federal, state and local government web resources and services.